Regional Weather Roundup
Issued by NWS

Home | Current Version | Previous Version | Text Only | Print | Product List | Glossary On
Versions: 1 2 3 4 5 6 7 8 9 10 11 12 13 14 15 16 17 18 19 20 21 22 23 24 25 26 27 28 29 30 31 32 33 34 35 36 37 38 39 40 41 42 43 44 45 46 47 48 49 50
000
ASUS44 KFWD 070115
RWRTX
NORTH TEXAS HOURLY WEATHER ROUNDUP
NATIONAL WEATHER SERVICE FORT WORTH TX
800 PM CDT WED MAY 06 2015

NOTE: "FAIR" INDICATES FEW OR NO CLOUDS BELOW 12,000 FEET WITH NO
SIGNIFICANT WEATHER AND/OR OBSTRUCTIONS TO VISIBILITY.

TXZ118-119-070200-
DALLAS/FORT WORTH METROPLEX

CITY           SKY/WX    TMP DP  RH WIND       PRES   REMARKS
DFW AIRPORT    CLOUDY    77  68  73 SE14      29.83R
DALLAS LOVE    CLOUDY    79  67  66 SE18G28   29.85R
FTW MEACHAM    CLOUDY    79  68  69 SE15      29.82S
DAL-EXECUTIVE  CLOUDY    77  68  73 SE16      29.85R
FTW-ALLIANCE   CLOUDY    77  67  71 SE15G21   29.83R
FTW-NAS-JRB    CLOUDY    79  68  69 SE16G25   29.83R
ARLINGTON      MOCLDY    79  67  66 SE13      29.84R
GRAND PRAIRIE  CLEAR     79  70  73 SE9       29.85R
ADDISON        PTCLDY    79  66  65 SE18G24   29.86R
MESQUITE       CLEAR     75  68  78 SE10      29.87
LANCASTER      CLOUDY    75  67  77 SE9       29.88R
$$

TXZ091>094-102>105-117-120-121-131>134-070200-
NORTH CENTRAL TEXAS

CITY           SKY/WX    TMP DP  RH WIND       PRES   REMARKS
SHRMAN/DENISON CLOUDY    78  70  77 SE10      29.87R
GAINESVILLE    CLOUDY    74  68  80 SE7       29.88R
BOWIE          LGT RAIN  74  67  77 SE9       29.84R
BRIDGEPORT     CLOUDY    76  69  77 E6        29.85R
DECATUR        CLOUDY    76  66  71 SE10      29.85R
DENTON         CLOUDY    77  68  73 SE9       29.85R
MCKINNEY       CLOUDY    77  67  71 SE10      29.86R
GREENVILLE     MOCLDY    77  64  65 SE7       29.90R
ROCKWALL       CLOUDY    76  69  78 SE7       29.87R
TERRELL        CLOUDY    79  68  69 SE7       29.88R
WAXAHACHIE     MOCLDY    76  70  81 SE8G16    29.87R
CLEBURNE       PTCLDY    77  73  88 SE12      29.85S
GRANBURY         N/A     80  68  67 SE13      29.82F
$$

TXZ083>090-098>101-113>116-127>130-139>142-154-155-070200-
WESTERN NORTH TEXAS

CITY           SKY/WX    TMP DP  RH WIND       PRES   REMARKS
WICHITA FALLS  CLOUDY    71  68  90 S13       29.76R
WF-KICKAPOO    CLOUDY    75  70  84 SE15G25   29.76F
VERNON         MOCLDY    73  56  56 S18G26    29.75R
ABILENE        PTCLDY    81  64  56 S17       29.77S
ABILENE-DYESS  PTCLDY    81  64  54 S21G28    29.75S
BRECKENRIDGE   CLOUDY    82  62  49 SE14G23   29.77S
GRAHAM         CLOUDY    78  68  72 E8G17     29.79R
MINERAL WELLS  CLOUDY    77  67  71 SE12      29.80R
STEPHENVILLE   CLEAR     79  66  64 SE12G17   29.84F
COMANCHE       CLEAR     79  66  64 SE13      29.81S
BROWNWOOD      CLEAR     81  63  54 S14G21    29.80R
COLEMAN        CLEAR     81  63  54 S15G24    29.80R
BRADY          CLEAR     79  63  57 S13       29.82R
$$

TXZ143>147-156>162-174-175-070200-
CENTRAL TEXAS

CITY           SKY/WX    TMP DP  RH WIND       PRES   REMARKS
WACO           CLEAR     79  69  71 SE13      29.84R
WACO-TSTC      PTCLDY    79  70  73 SE17      29.85R
WACO-MCGREGOR  CLEAR     81  66  61 SE13      29.85R
HILLSBORO      CLEAR     77  67  72 SE10      29.86R
CORSICANA      MOCLDY    78  69  73 SE9       29.89R
MEXIA          MOCLDY    77  71  81 SE16G33   29.86S
HEARNE         PTCLDY    78  72  81 E8        29.86F
CAMERON        MOCLDY    80  69  69 SE7       29.84S
TEMPLE         PTCLDY    79  64  61 SE13G18   29.83S
KILLEEN        CLEAR     78  68  69 SE15      29.82S
KILLEEN-SKYLRK CLEAR     81  64  57 S14G20    29.83S
FORT HOOD      CLEAR     80  67  63 SE10      29.82S
GATESVILLE     PTCLDY    81  68  65 SE9       29.85R
HAMILTON       CLEAR     79  66  64 SE12      29.84R
LAMPASAS       CLEAR     81  69  67 SE12G24   29.82S
$$

TXZ095>097-106>112-122>126-135>138-148>153-164>167-070200-
EAST TEXAS

CITY           SKY/WX    TMP DP  RH WIND       PRES   REMARKS
PARIS          PTCLDY    73  66  78 SE13      29.91R
SULPHUR SPRNGS CLEAR     76  69  79 E8        29.91S
MOUNT PLEASANT MOCLDY   N/A N/A N/A SE6       29.93S
GILMER         PTCLDY    72  68  88 SE5       29.93R
MINEOLA        PTCLDY    77  70  78 SE6       29.91R
TYLER          MOCLDY    75  67  76 SE10      29.90R
LONGVIEW       CLEAR     73  67  81 E6        29.92S
MARSHALL       PTCLDY    76  69  78 SE5       29.95F
ATHENS         CLOUDY    73  70  88 SE5       29.89R
PALESTINE      CLOUDY    77  70  79 SE6       29.90S
JACKSONVILLE   MOCLDY    74  68  80 SE7       29.93S
HENDERSON      PTCLDY    73  68  85 SE5       29.93R
NACOGDOCHES      N/A     73  70  88 E7        29.92F
LUFKIN         MOCLDY    73  68  84 SE9       29.92S
$$

SUPPLEMENTAL OBSERVATIONS (CENTRAL)

CITY           SKY/WX    TMP DP  RH WIND       PRES   REMARKS
LAKE TEXOMA      N/A     75  66  73 SE9         N/A
CADDO GRASSLND   N/A     75  68  78 SE5         N/A
PAT MAYSE LAKE   N/A     73  68  83 E8          N/A
GREENVILLE       N/A     75  66  73 SE6         N/A
CEDAR HILL       N/A     75  66  73 SE5         N/A
ATHENS           N/A     75  68  78 SE10        N/A
LAKE LIMESTONE   N/A     77  68  73 SE9         N/A
MCGREGOR         N/A     79  70  73 SE9G17      N/A
TEMPLE           N/A     79  66  65 SE12        N/A
$$

SUPPLEMENTAL OBSERVATIONS (WEST)

CITY           SKY/WX    TMP DP  RH WIND       PRES   REMARKS
POSSUM KINGDOM   N/A     77  66  69 E8          N/A
LBJ GRASSLAND    N/A     77  68  73 SE6G17      N/A
GRANBURY         N/A     79  66  65 SE15        N/A
COMANCHE         N/A     79  64  61 SE12G20     N/A
HAMBY            N/A     81  63  54 S16G26      N/A
IVIE RESERVOIR   N/A     81  63  54 S16G25      N/A
COLORADO BEND    N/A     79  64  61 SW10        N/A
$$

SUPPLEMENTAL OBSERVATIONS (EAST)

CITY           SKY/WX    TMP DP  RH WIND       PRES   REMARKS
CLARKSVILLE      N/A     73  68  83 SE8         N/A
TEXARKANA        N/A     75  64  69 CALM        N/A
CADDO LAKE       N/A     72  66  83 CALM        N/A
GILMER           N/A     72  66  83 SE3         N/A
HENDERSON        N/A     72  66  83 SE5         N/A
LUFKIN           N/A     73  68  83 MISG        N/A
N SABINE NF      N/A     73  66  78 MISG        N/A
S SABINE NF      N/A     73  66  78 CALM        N/A
$$

SUPPLEMENTAL OBSERVATIONS ARE A COLLECTION OF AUTOMATED INSTRUMENTS
THAT ARE MAINTAINED BY A VARIETY OF FEDERAL AND STATE AGENCIES.
CERTAIN ELEMENTS...SUCH AS HUMIDITY VALUES AND SUSTAINED WIND
SPEEDS...MAY BE APPROXIMATED.



USA.gov is the U.S. government's official web portal to all federal, state and local government web resources and services.